User: anonymous   Login
Location: Unspecified
(0.0000°N, 0.0000°E)
Time: 15:29:09
(UTC+00:00)
Language:

PERSEUS M1 - Orbit

View from above orbital plane
View from above orbital plane
View from above satellite
View from above satellite

Ground track
Ground track

The orbit data is extracted from the following two-line orbital elements,

1 40039U 14033AF  17229.20606011  .00000088  00000-0  16408-4 0  9993
2 40039  97.9078 137.1836 0015747 100.6730 259.6260 14.85866570171344
Epoch (UTC): 17 August 2017 04:56:43
Eccentricity: 0.0015747
inclination: 97.9078°
perigee height: 600 km
apogee height: 622 km
right ascension of ascending node: 137.1836°
argument of perigee: 100.6730°
revolutions per day: 14.85866570
mean anomaly at epoch: 259.6260°
orbit number at epoch: 17134

The dashed part of the orbit path shows where the satellite is in the earth's shadow,  

DLR